[[{"header":{"parameterUnit":"m.s-1","parameterCategory":1,"la1":30.2991,"la2":30.254,"lo1":-89.0895,"lo2":-89.0444,"dy":0.0017,"dx":0.0017,"nx":28,"ny":28,"refTime":"2024-02-25T09:00:00:Z","depth":0,"parameterNumber":2,"parameterNumberName":"U-component_of_WINDS"},"data":[0,0,0,0,0,0,0,0,0,0,0,0,0,0,0,0,0,0,0,0,0,0,0,0,0,0,0,0,0,0,0,0,0,0,0,0,0,0,0,0,0,0,0,0,0,0,0,0,0,0,0,0,0,0,0,0,0,0,-2.4825,-2.4825,0,-2.4847,-2.4847,-2.4848,-2.4819,-2.4818,-2.4817,-2.4816,-2.4839,-2.4841,-2.4842,0,0,0,0,0,0,0,0,0,0,0,0,0,-2.4761,-2.4762,-2.4825,-2.4825,-2.4825,-2.4847,-2.4847,-2.4848,-2.4819,-2.4818,-2.4817,-2.4816,-2.4839,-2.4841,-2.4843,0,0,0,0,0,0,0,0,0,0,0,0,0,-2.4786,-2.4762,-2.4825,-2.4814,-2.4813,-2.4847,-2.4847,-2.4848,-2.482,-2.4818,-2.4817,-2.4815,-2.4838,-2.484,-2.4843,-2.4888,0,0,-2.485,-2.4851,0,0,0,0,0,0,0,0,-2.4785,-2.4789,-2.4815,-2.4815,-2.4814,-2.4829,-2.4833,-2.4861,-2.482,-2.4817,-2.4816,-2.4814,-2.4837,-2.4839,-2.4847,-2.4889,-2.489,-2.485,-2.4852,-2.4853,-2.4853,0,0,0,0,0,0,0,-2.4783,-2.4788,-2.4834,-2.4816,-2.4815,-2.4809,-2.4811,-2.4838,-2.4836,-2.4817,-2.4815,-2.4818,-2.4836,-2.4845,-2.4847,-2.4891,-2.485,-2.4852,-2.4854,-2.4855,-2.4974,-2.4976,0,0,0,0,0,0,-2.4782,-2.4786,-2.4833,-2.4834,-2.4795,-2.4811,-2.4813,-2.4826,-2.4835,-2.4835,-2.482,-2.4817,-2.4842,-2.4845,-2.4848,-2.4902,-2.4853,-2.4855,-2.4856,-2.4972,-2.4974,-2.4976,0,0,0,0,0,0,-2.4781,-2.4787,-2.4832,-2.481,-2.4815,-2.4814,-2.4828,-2.4827,-2.4835,-2.4837,-2.4836,-2.4828,-2.484,-2.4845,-2.4879,-2.4903,-2.4856,-2.4858,-2.497,-2.4973,-2.4975,-2.5011,0,0,0,0,0,0,-2.4779,-2.4786,-2.4803,-2.481,-2.4816,-2.4862,-2.4829,-2.4828,-2.4839,-2.4836,-2.4845,-2.4845,-2.484,-2.4876,-2.4881,-2.4905,-2.486,-2.4968,-2.4971,-2.4974,-2.5008,-2.5014,-2.502,0,0,0,0,0,-2.4777,-2.4812,-2.4804,-2.4809,-2.4837,-2.4863,-2.4866,-2.4859,-2.4841,-2.4858,-2.486,-2.4845,-2.49,-2.4879,-2.4885,-2.491,-2.4966,-2.497,-2.4974,-2.5005,-2.5013,-2.502,0,0,0,0,0,0,-2.4806,-2.4812,-2.4803,-2.4841,-2.4852,-2.4858,-2.4879,-2.4868,-2.4884,-2.488,-2.4871,-2.4873,-2.491,-2.4914,-2.4891,-2.4956,-2.493,-2.4936,-2.4951,-2.4959,-2.4966,-2.4963,-2.4862,0,0,0,0,0,-2.4817,-2.4837,-2.4842,-2.4875,-2.4881,-2.4879,-2.489,-2.4885,-2.4895,-2.4899,-2.4903,-2.4915,-2.4935,-2.4948,-2.4966,-2.501,-2.5011,-2.503,-2.5036,-2.5042,-2.5046,-2.507,-2.5078,-2.4989,-2.4989,-2.4989,0,0,-2.4839,-2.4845,-2.4858,-2.4881,-2.4888,-2.491,-2.4883,-2.4907,-2.4923,-2.4903,-2.4935,-2.4939,-2.4952,-2.4991,-2.5008,-2.4995,-2.5071,-2.5047,-2.5051,-2.5052,-2.5075,-2.5083,-2.5091,-2.4992,-2.4991,-2.4991,0,0,-2.489,-2.4897,-2.4925,-2.4934,-2.4947,-2.4946,-2.4953,-2.4962,-2.4964,-2.4997,-2.4982,-2.5003,-2.5037,-2.5047,-2.5056,-2.5116,-2.5103,-2.5123,-2.5155,-2.5179,-2.5186,-2.5192,-2.5213,-2.5221,-2.5127,-2.5128,-2.5128,0,-2.4916,-2.4948,-2.4942,-2.4967,-2.4978,-2.4962,-2.4992,-2.5001,-2.5019,-2.5027,-2.5013,-2.5057,-2.5064,-2.5106,-2.5121,-2.513,-2.5138,-2.512,-2.5185,-2.5191,-2.5197,-2.5217,-2.5225,-2.513,-2.5129,-2.5129,-2.5129,0,-2.4979,-2.5002,-2.5024,-2.5042,-2.5056,-2.5083,-2.5082,-2.5097,-2.5092,-2.5093,-2.5128,-2.5137,-2.5157,-2.5168,-2.5162,-2.521,-2.5201,-2.5187,-2.516,-2.5208,-2.5226,-2.5234,-2.5133,-2.5132,-2.5131,-2.5131,0,0,-2.5044,-2.5062,-2.5069,-2.5078,-2.5093,-2.511,-2.5139,-2.516,-2.5173,-2.5187,-2.5211,-2.5242,-2.523,-2.5241,-2.5237,-2.5258,-2.5305,-2.5241,-2.5241,-2.5251,-2.5358,-2.5368,-2.5376,-2.5298,-2.53,-2.5301,-2.5357,0,-2.5095,-2.5142,-2.5139,-2.5185,-2.5206,-2.5194,-2.5219,-2.5231,-2.5235,-2.5254,-2.5259,-2.5281,-2.5263,-2.5269,-2.529,-2.5295,-2.5326,-2.5291,-2.5319,-2.532,-2.5314,-2.5386,-2.5395,-2.5448,-2.5364,-2.5366,-2.5366,0,-2.5158,-2.5176,-2.5223,-2.5237,-2.5246,-2.5268,-2.5288,-2.5307,-2.5322,-2.5323,-2.5337,-2.5331,-2.5361,-2.5336,-2.5378,-2.5354,-2.5366,-2.5371,-2.5373,-2.5373,-2.5344,-2.5387,-2.5464,-2.5472,-2.5378,-2.5377,-2.5376,0,-2.52,-2.5236,-2.5269,-2.5277,-2.5294,-2.531,-2.5318,-2.5331,-2.5345,-2.5363,-2.5372,-2.5394,-2.5405,-2.5423,-2.5423,-2.5405,-2.5466,-2.5441,-2.5467,-2.5467,-2.5477,-2.5476,-2.5556,-2.5489,-2.5489,-2.5489,-2.5489,0,-2.5255,-2.5284,-2.5288,-2.5308,-2.5341,-2.534,-2.5373,-2.5379,-2.5392,-2.5414,-2.5407,-2.5428,-2.5428,-2.545,-2.5451,-2.5485,-2.5491,-2.5493,-2.5492,-2.5492,-2.5492,-2.5498,-2.5493,-2.5491,-2.5491,-2.549,-2.549,0,-2.5305,-2.5309,-2.5344,-2.5359,-2.5363,-2.5387,-2.5399,-2.5419,-2.5424,-2.5452,-2.5459,-2.5466,-2.5492,-2.5495,-2.5525,-2.5526,-2.5567,-2.5564,-2.5561,-2.556,-2.5586,-2.5583,-2.5671,-2.5682,-2.561,-2.5611,-2.5611,0,-2.5339,-2.5361,-2.5379,-2.5393,-2.5402,-2.5425,-2.544,-2.5441,-2.5456,-2.5477,-2.5494,-2.552,-2.554,-2.5582,-2.559,-2.5614,-2.561,-2.5639,-2.5613,-2.5613,-2.5609,-2.5606,-2.5609,-2.5643,-2.5644,-2.5645,-2.5645,0,-2.5398,-2.5399,-2.542,-2.5442,-2.546,-2.5478,-2.5494,-2.5507,-2.551,-2.5528,-2.5555,-2.5571,-2.5603,-2.5628,-2.5652,-2.5661,-2.5654,-2.5654,-2.5661,-2.566,-2.5657,-2.5658,-2.5573,-2.5651,-2.5651,-2.565,-2.565,-2.565,-2.5439,-2.5459,-2.5475,-2.5499,-2.5513,-2.5529,-2.5549,-2.5557,-2.5579,-2.5605,-2.5605,-2.5635,-2.5652,-2.5684,-2.5695,-2.5719,-2.5709,-2.572,-2.5722,-2.5724,-2.5726,-2.5656,-2.5724,-2.5724,-2.5724,-2.5723,-2.5723,0,-2.5496,-2.5507,-2.553,-2.5554,-2.5574,-2.5567,-2.5586,-2.5603,-2.5629,-2.5646,-2.5667,-2.5699,-2.5724,-2.5736,-2.5762,-2.5779,-2.5776,-2.5785,-2.5783,-2.5785,-2.5734,-2.5724,-2.5787,-2.5787,-2.5787,-2.5787,-2.5787,-2.5787,-2.5528,-2.5562,-2.5566,-2.5607,-2.5618,-2.5646,-2.5658,-2.5674,-2.5688,-2.5724,-2.5745,-2.5753,-2.5769,-2.5796,-2.582,-2.5823,-2.5832,-2.5843,-2.5844,-2.5795,-2.5789,-2.5782,-2.5773,-2.5845,-2.5845,-2.5893,-2.5893,-2.5894]},{"header":{"parameterUnit":"m.s-1","parameterCategory":1,"la1":30.2991,"la2":30.254,"lo1":-89.0895,"lo2":-89.0444,"dy":0.0017,"dx":0.0017,"nx":28,"ny":28,"refTime":"2024-02-25T09:00:00:Z","depth":0,"parameterNumber":3,"parameterNumberName":"V-component_of_WINDS"},"data":[0,0,0,0,0,0,0,0,0,0,0,0,0,0,0,0,0,0,0,0,0,0,0,0,0,0,0,0,0,0,0,0,0,0,0,0,0,0,0,0,0,0,0,0,0,0,0,0,0,0,0,0,0,0,0,0,0,0,3.2154,3.2154,0,3.2141,3.2141,3.2141,3.2178,3.2179,3.218,3.2181,3.2162,3.216,3.2158,0,0,0,0,0,0,0,0,0,0,0,0,0,3.2206,3.2205,3.2154,3.2154,3.2154,3.2141,3.2141,3.2141,3.2177,3.2179,3.218,3.2182,3.2162,3.216,3.2158,0,0,0,0,0,0,0,0,0,0,0,0,0,3.2187,3.2204,3.2154,3.2171,3.2172,3.2141,3.2141,3.2141,3.2177,3.2179,3.2181,3.2182,3.2163,3.216,3.2158,3.2109,0,0,3.2151,3.215,0,0,0,0,0,0,0,0,3.2188,3.2185,3.2168,3.2169,3.2171,3.2163,3.2152,3.213,3.2177,3.2175,3.2181,3.2183,3.216,3.2158,3.2152,3.2108,3.2107,3.2151,3.2149,3.2148,3.2147,0,0,0,0,0,0,0,3.2189,3.2186,3.2149,3.2168,3.217,3.2177,3.2177,3.2148,3.2158,3.2175,3.2178,3.2176,3.2161,3.2154,3.2152,3.2107,3.2151,3.2149,3.2147,3.2146,3.2024,3.2022,0,0,0,0,0,0,3.2189,3.2187,3.2149,3.2148,3.2184,3.2175,3.2174,3.2164,3.2158,3.2159,3.2175,3.2178,3.2157,3.2154,3.2151,3.2094,3.2148,3.2146,3.2145,3.2026,3.2024,3.2022,0,0,0,0,0,0,3.219,3.2186,3.215,3.2168,3.2164,3.2172,3.216,3.2162,3.2155,3.2158,3.2159,3.2166,3.2158,3.2154,3.212,3.2094,3.2145,3.2143,3.2028,3.2025,3.2023,3.1979,0,0,0,0,0,0,3.2192,3.2186,3.2168,3.2168,3.2163,3.212,3.2159,3.2161,3.2152,3.2156,3.215,3.2151,3.2159,3.2123,3.2118,3.2092,3.2141,3.203,3.2027,3.2023,3.1983,3.1976,3.1969,0,0,0,0,0,3.2193,3.2154,3.2167,3.2162,3.2141,3.2118,3.2116,3.2128,3.215,3.2131,3.2134,3.2151,3.2098,3.212,3.2113,3.2086,3.2032,3.2028,3.2024,3.1986,3.1977,3.1969,0,0,0,0,0,0,3.2148,3.2154,3.2168,3.2128,3.2123,3.2125,3.2102,3.2118,3.2104,3.2108,3.2123,3.2121,3.2084,3.2082,3.2106,3.2039,3.2068,3.2063,3.2042,3.2033,3.2027,3.2027,3.2139,0,0,0,0,0,3.2134,3.2116,3.2122,3.2086,3.2083,3.2093,3.2083,3.2094,3.2088,3.2085,3.2085,3.2077,3.2059,3.2046,3.2029,3.1984,3.1983,3.1962,3.1955,3.1949,3.1944,3.1921,3.1912,3.2008,3.2008,3.2008,0,0,3.2103,3.2105,3.2092,3.2078,3.2075,3.2055,3.2091,3.2068,3.2053,3.2081,3.2049,3.2049,3.2041,3.2001,3.1984,3.1998,3.1918,3.1944,3.194,3.1937,3.1916,3.1907,3.1899,3.2005,3.2006,3.2006,0,0,3.2038,3.2038,3.2009,3.2006,3.2002,3.2009,3.2003,3.2003,3.2004,3.1973,3.1995,3.1977,3.1945,3.1939,3.1932,3.1868,3.1883,3.1862,3.1824,3.1802,3.1794,3.1788,3.1765,3.1757,3.1857,3.1857,3.1856,0,3.2,3.1973,3.1991,3.1968,3.1961,3.1989,3.1959,3.1955,3.1945,3.1939,3.1956,3.1918,3.1915,3.1875,3.186,3.1853,3.1845,3.1862,3.1794,3.1788,3.1782,3.1761,3.1752,3.1854,3.1854,3.1855,3.1855,0,3.1927,3.1908,3.1885,3.1878,3.1869,3.1842,3.1855,3.1843,3.1855,3.1861,3.1829,3.1827,3.1811,3.1802,3.1813,3.1764,3.1774,3.1792,3.1822,3.177,3.175,3.1742,3.185,3.1851,3.1852,3.1853,0,0,3.1831,3.1837,3.1828,3.1826,3.1825,3.181,3.1785,3.1772,3.1762,3.1755,3.1734,3.1708,3.1726,3.1718,3.1728,3.1709,3.166,3.173,3.173,3.1717,3.1607,3.1593,3.1583,3.1671,3.1669,3.1668,3.1608,0,3.1767,3.1727,3.1743,3.1701,3.1684,3.1712,3.169,3.1687,3.1692,3.1677,3.1682,3.1663,3.1689,3.1684,3.1666,3.1669,3.1637,3.1674,3.1651,3.165,3.1651,3.1573,3.1557,3.15,3.16,3.1599,3.1598,0,3.1687,3.168,3.1636,3.1641,3.1635,3.1615,3.1606,3.1592,3.1589,3.1594,3.1587,3.1602,3.1577,3.1608,3.1574,3.1599,3.159,3.1591,3.1589,3.1586,3.162,3.1568,3.1482,3.1474,3.1586,3.1587,3.1588,0,3.1621,3.1601,3.1573,3.157,3.1574,3.156,3.1561,3.156,3.1552,3.1544,3.1539,3.1527,3.152,3.151,3.1521,3.1542,3.1486,3.1517,3.1489,3.1488,3.1474,3.1475,3.1386,3.1469,3.147,3.147,3.147,0,3.1548,3.1521,3.1544,3.1526,3.1497,3.1516,3.1486,3.1489,3.1489,3.1472,3.1495,3.1478,3.1495,3.148,3.1489,3.146,3.1456,3.1459,3.1461,3.1457,3.1456,3.1451,3.1455,3.1468,3.1468,3.1468,3.1469,0,3.1469,3.1484,3.1456,3.1464,3.1465,3.1443,3.1449,3.1433,3.1441,3.1419,3.1415,3.1426,3.141,3.1422,3.1404,3.141,3.1373,3.1381,3.1374,3.1376,3.1348,3.135,3.1251,3.124,3.1331,3.133,3.1329,0,3.1422,3.1402,3.1409,3.1401,3.1401,3.1387,3.138,3.1398,3.139,3.1387,3.1371,3.1357,3.1347,3.132,3.1326,3.1313,3.1321,3.1287,3.1319,3.1316,3.1321,3.1322,3.132,3.128,3.1279,3.1279,3.1278,0,3.1336,3.1345,3.1335,3.1328,3.132,3.1315,3.1311,3.1302,3.1322,3.1311,3.1296,3.1289,3.1273,3.1259,3.125,3.1249,3.1266,3.1268,3.1261,3.1256,3.1253,3.1255,3.1357,3.127,3.1271,3.1271,3.1272,3.1272,3.1271,3.1255,3.1259,3.1247,3.1248,3.1244,3.1231,3.1238,3.1227,3.1217,3.1229,3.1211,3.121,3.1199,3.1197,3.1183,3.1196,3.1185,3.1183,3.118,3.1176,3.1256,3.1181,3.1181,3.1181,3.1181,3.1182,0,3.1186,3.1191,3.118,3.1177,3.1168,3.1188,3.1186,3.1177,3.1161,3.116,3.1151,3.1135,3.1122,3.1128,3.1117,3.1105,3.1112,3.1101,3.1102,3.1102,3.1164,3.1172,3.1095,3.1095,3.1095,3.1095,3.1095,3.1095,3.1141,3.1116,3.1126,3.1102,3.1106,3.109,3.1088,3.1085,3.1085,3.1066,3.1057,3.1062,3.1064,3.1054,3.1043,3.1045,3.104,3.1026,3.103,3.1088,3.1097,3.1105,3.1112,3.1024,3.1024,3.0969,3.0969,3.0968]}]]